Location: Sungai Dangang
(2.7500°N, 113.8333°E)
Time: 18:05:28
(UTC+00:00)

Cosmos 2034 Rocket - Pass Details

Date: 16 May 2021
Orbit: 957 x 1001 km, 82.9° (Epoch: 19 June)

Event Time Altitude Azimuth Distance (km) Brightness Sun altitude
Rises 20:03:44 0° 359° (N) 3,674 7.3 -31.1°
Reaches altitude 10° 20:06:15 10° 0° (N) 2,721 6.6 -30.5°
Maximum altitude 20:12:29 79° 87° (E) 990 4.0 -29.1°
Enters shadow 20:14:57 39° 167° (SSE) 1,411 4.7 -28.5°
